GW2195 Weather Reports


time (UTC)temp
C
wind
direction
speed
KPH
gust
KPH
rain 1hr
cm
rain 24hr
cm
rain mn
cm
humidity
%
barometer
mb
20260504081602 11 126 0.0 6.4 0.00 0.20 0.00 80 1014.6
20260504081048 11 187 1.6 6.4 0.00 0.20 0.00 80 1014.6
20260504080537 11 196 0.0 4.8 0.00 0.20 0.00 81 1014.5
20260504050534 7 15 0.0 3.2 0.00 0.20 0.00 92 1013.3
20260504050002 7 10 0.0 4.8 0.00 0.20 0.00 92 1013.3
20260504045552 7 13 1.6 4.8 0.00 0.20 0.00 92 1013.4
20260504045040 7 23 0.0 0.0 0.00 0.20 0.00 92 1013.3
20260504044601 7 37 0.0 1.6 0.00 0.20 0.00 92 1013.3
20260504044049 7 19 0.0 3.2 0.00 0.20 0.00 92 1013.3
20260504043538 7 15 0.0 3.2 0.00 0.20 0.00 92 1013.2
20260504043104 7 26 0.0 3.2 0.00 0.20 0.00 92 1013.2
20260504042544 7 32 0.0 3.2 0.00 0.20 0.00 92 1013.1
20260504042033 7 19 0.0 4.8 0.00 0.20 0.00 92 1013.2
20260504041557 7 21 1.6 4.8 0.00 0.20 0.00 91 1013.2
20260504041042 7 22 0.0 3.2 0.00 0.20 0.00 91 1013.2
20260504040532 7 28 0.0 3.2 0.00 0.20 0.00 91 1013.2
20260504040054 7 33 1.6 3.2 0.00 0.20 0.00 90 1013.3
20260504035535 7 28 0.0 4.8 0.00 0.20 0.00 90 1013.1
20260504035017 7 33 1.6 6.4 0.00 0.20 0.00 90 1013.2
20260504034539 7 32 3.2 6.4 0.00 0.20 0.00 90 1013.2
20260504034020 7 37 1.6 3.2 0.00 0.20 0.00 89 1013.2
20260504033508 8 34 0.0 3.2 0.00 0.20 0.00 89 1013.2
20260504033023 8 29 1.6 3.2 0.00 0.20 0.00 89 1013.2
20260504032505 8 43 0.0 1.6 0.00 0.20 0.00 89 1013.3
20260504032055 8 35 0.0 1.6 0.00 0.20 0.00 88 1013.2
20260504031521 8 5 0.0 1.6 0.00 0.20 0.00 89 1013.3
20260504031008 8 13 0.0 3.2 0.00 0.20 0.00 88 1013.2
20260504030556 8 22 0.0 3.2 0.00 0.20 0.00 88 1013.2
20260504030020 8 5 0.0 1.6 0.00 0.20 0.00 89 1013.2
20260504025506 8 13 0.0 3.2 0.00 0.20 0.00 89 1013.2
20260504025056 8 13 0.0 3.2 0.00 0.20 0.00 88 1013.2
20260504024513 8 27 0.0 3.2 0.00 0.20 0.00 88 1013.3
20260504024106 9 28 0.0 3.2 0.00 0.20 0.00 88 1013.3
20260504023547 9 33 0.0 0.0 0.00 0.20 0.00 88 1013.3
20260504023009 9 33 0.0 0.0 0.00 0.20 0.00 88 1013.4
20260504022555 9 33 0.0 0.0 0.00 0.20 0.00 88 1013.3
20260504022040 9 39 0.0 0.0 0.00 0.20 0.00 88 1013.3
20260504021505 9 26 0.0 3.2 0.00 0.20 0.00 88 1013.2
20260504021053 9 26 0.0 3.2 0.00 0.20 0.00 87 1013.3
20260504020540 9 33 0.0 3.2 0.00 0.20 0.00 87 1013.3
20260504020004 9 23 0.0 0.0 0.00 0.23 0.00 87 1013.3
20260504015550 9 23 0.0 3.2 0.00 0.23 0.00 87 1013.4
20260504015038 9 23 0.0 3.2 0.00 0.23 0.00 86 1013.4
20260504014605 9 15 0.0 3.2 0.00 0.23 0.00 87 1013.2
20260504014043 10 5 0.0 1.6 0.00 0.23 0.00 86 1013.4
20260504013533 10 355 0.0 1.6 0.00 0.23 0.00 86 1013.3
20260504013051 10 355 0.0 1.6 0.00 0.23 0.00 86 1013.4
20260504012537 10 355 0.0 1.6 0.00 0.23 0.00 86 1013.4
20260504012024 10 349 0.0 1.6 0.00 0.23 0.00 84 1013.4
20260504011546 10 292 0.0 4.8 0.00 0.23 0.00 84 1013.4
20260504011028 10 292 0.0 4.8 0.00 0.23 0.00 84 1013.2
20260504010517 10 315 1.6 6.4 0.00 0.23 0.00 84 1013.1
20260504010032 10 346 1.6 6.4 0.00 0.23 0.00 85 1013.3
20260504005519 10 344 1.6 3.2 0.00 0.23 0.00 85 1013.5
20260504005007 10 15 0.0 4.8 0.00 0.23 0.00 86 1013.5
20260504004536 10 360 0.0 4.8 0.00 0.23 0.00 84 1013.5
20260504004019 10 33 0.0 3.2 0.00 0.23 0.00 85 1013.5
20260504003506 10 33 0.0 4.8 0.00 0.23 0.00 85 1013.5
20260504003023 10 22 1.6 4.8 0.00 0.23 0.00 85 1013.6
20260504002510 10 346 1.6 4.8 0.00 0.23 0.00 86 1013.5
20260504002100 10 336 0.0 3.2 0.00 0.23 0.00 86 1013.5
20260504001529 10 331 0.0 4.8 0.00 0.23 0.00 86 1013.6
20260504001010 10 355 0.0 4.8 0.00 0.23 0.00 86 1013.6
20260504000552 10 355 0.0 4.8 0.00 0.23 0.00 86 1013.7
20260504000009 10 300 0.0 1.6 0.00 0.23 0.00 86 1013.8
20260503235551 10 300 0.0 1.6 0.00 0.23 0.00 85 1013.7
20260503235034 10 311 0.0 4.8 0.00 0.23 0.00 85 1013.6
20260503234551 10 338 1.6 4.8 0.00 0.23 0.00 85 1013.7
20260503234040 10 340 0.0 3.2 0.00 0.23 0.00 85 1013.7
20260503233516 11 328 0.0 3.2 0.00 0.23 0.00 85 1013.7
20260503233034 11 5 0.0 3.2 0.00 0.23 0.00 85 1013.8
20260503232521 11 5 0.0 3.2 0.00 0.23 0.00 85 1013.8
20260503232008 11 271 0.0 3.2 0.00 0.23 0.00 86 1013.8
20260503231529 11 230 0.0 3.2 0.00 0.23 0.00 86 1013.8
20260503231016 11 241 0.0 3.2 0.00 0.23 0.00 86 1013.8
20260503230600 11 263 0.0 6.4 0.00 0.23 0.00 87 1013.9
20260503230011 11 167 0.0 4.8 0.00 0.36 0.23 87 1013.9
20260503225601 11 355 0.0 4.8 0.00 0.36 0.23 87 1013.9
20260503225046 11 19 0.0 6.4 0.00 0.36 0.23 87 1013.9
20260503224605 11 331 0.0 8.0 0.00 0.36 0.23 87 1013.8
20260503224047 11 355 1.6 8.0 0.00 0.36 0.23 87 1013.8
20260503223530 11 360 3.2 8.0 0.00 0.36 0.23 87 1013.9
20260503223046 11 15 0.0 3.2 0.00 0.36 0.23 87 1013.8
20260503222531 11 32 0.0 4.8 0.00 0.36 0.23 87 1013.8
20260503222014 11 28 0.0 4.8 0.00 0.36 0.23 88 1013.7
20260503221534 11 323 0.0 4.8 0.00 0.36 0.23 88 1013.6
20260503221017 11 348 0.0 4.8 0.00 0.36 0.23 89 1013.6
20260503220605 11 355 0.0 4.8 0.00 0.36 0.23 89 1013.7
20260503220026 11 263 0.0 3.2 0.00 0.36 0.23 90 1013.6
20260503215514 11 252 0.0 8.0 0.00 0.36 0.23 90 1013.6
20260503215101 11 248 0.0 8.0 0.00 0.36 0.23 90 1013.6
20260503214535 11 278 0.0 0.0 0.00 0.36 0.23 91 1013.5
20260503214009 11 180 0.0 0.0 0.00 0.36 0.23 93 1013.6
20260503213558 11 123 0.0 0.0 0.00 0.36 0.23 92 1013.4
20260503213009 11 64 0.0 0.0 0.00 0.36 0.23 93 1013.3
20260503212559 11 64 0.0 0.0 0.00 0.36 0.23 92 1013.3
20260503212046 11 64 0.0 0.0 0.03 0.36 0.23 92 1013.2
20260503211505 11 64 0.0 0.0 0.05 0.36 0.23 92 1013.2
20260503211054 11 64 0.0 0.0 0.05 0.36 0.23 92 1013.2
20260503210542 12 64 0.0 0.0 0.05 0.36 0.23 92 1013.1
20260503210009 12 64 0.0 0.0 0.05 0.36 0.23 91 1013.0
20260503205601 12 64 0.0 0.0 0.05 0.36 0.23 92 1013.0
20260503205048 12 64 0.0 0.0 0.05 0.36 0.23 91 1013.0
20260503204513 12 64 0.0 0.0 0.05 0.36 0.23 91 1012.9
20260503204002 12 64 0.0 0.0 0.05 0.36 0.23 91 1012.8
20260503203552 12 64 0.0 0.0 0.05 0.36 0.23 91 1012.8
20260503203008 12 64 0.0 0.0 0.05 0.36 0.23 90 1012.8
20260503202556 12 64 0.0 0.0 0.05 0.36 0.23 90 1012.8
20260503202043 12 78 0.0 0.0 0.05 0.33 0.23 90 1012.7
20260503201502 12 31 0.0 0.0 0.03 0.33 0.20 89 1012.6
20260503201051 12 31 0.0 0.0 0.03 0.33 0.20 89 1012.5
20260503200539 12 31 0.0 0.0 0.03 0.33 0.20 88 1012.5
20260503200115 12 133 0.0 0.0 0.03 0.33 0.20 87 1012.5
20260503195547 12 133 0.0 0.0 0.03 0.33 0.20 87 1012.5
20260503195034 12 42 0.0 0.0 0.03 0.33 0.20 87 1012.4
20260503194603 12 15 0.0 0.0 0.03 0.33 0.20 86 1012.3
20260503194043 13 15 0.0 0.0 0.03 0.33 0.20 86 1012.2
20260503193529 13 15 0.0 0.0 0.03 0.33 0.20 85 1012.2
20260503193058 13 342 0.0 0.0 0.00 0.30 0.18 84 1012.2
20260503192541 13 32 0.0 0.0 0.00 0.30 0.18 83 1012.1
20260503192026 13 36 0.0 1.6 0.00 0.30 0.18 83 1012.1
20260503191549 13 360 0.0 1.6 0.00 0.30 0.18 79 1012.1
20260503191034 13 266 0.0 1.6 0.00 0.30 0.18 79 1012.1
20260503190520 13 266 0.0 1.6 0.00 0.30 0.18 79 1012.1
20260503190047 13 266 0.0 1.6 0.00 0.30 0.18 79 1012.0
20260503185529 13 266 0.0 1.6 0.00 0.30 0.18 79 1012.0
20260503185019 14 244 0.0 1.6 0.00 0.30 0.18 78 1012.0
20260503184546 14 244 0.0 1.6 0.00 0.30 0.18 78 1012.0
20260503184027 14 273 0.0 4.8 0.00 0.30 0.18 78 1012.0
20260503183512 14 251 0.0 4.8 0.00 0.30 0.18 77 1012.0
20260503183044 14 247 0.0 3.2 0.00 0.30 0.18 77 1012.0
20260503182533 14 213 0.0 3.2 0.00 0.30 0.18 77 1012.1
20260503182021 14 233 0.0 4.8 0.00 0.30 0.18 77 1012.0
20260503181555 14 234 0.0 4.8 0.00 0.30 0.18 77 1012.0
20260503181027 14 338 0.0 3.2 0.00 0.30 0.18 77 1012.0
20260503180515 14 202 0.0 3.2 0.00 0.30 0.18 77 1012.0
20260503180047 14 331 0.0 4.8 0.00 0.30 0.18 77 1012.1
20260503175515 14 5 0.0 4.8 0.00 0.30 0.18 76 1012.0
20260503175003 14 241 0.0 4.8 0.00 0.30 0.18 77 1012.1
20260503174525 14 229 1.6 4.8 0.00 0.30 0.18 77 1012.1
20260503174003 14 215 0.0 3.2 0.00 0.30 0.18 78 1012.0
20260503173548 14 229 0.0 6.4 0.00 0.30 0.18 78 1012.0
20260503173015 14 184 0.0 6.4 0.00 0.30 0.18 77 1012.0
20260503172601 14 264 1.6 4.8 0.00 0.30 0.18 78 1012.0
20260503172046 13 331 0.0 3.2 0.00 0.30 0.18 78 1011.9
20260503171513 13 201 0.0 4.8 0.00 0.30 0.18 79 1011.9
20260503171059 13 350 0.0 4.8 0.00 0.30 0.18 79 1011.9
20260503170542 13 292 0.0 3.2 0.00 0.30 0.18 79 1011.9
20260503150514 13 347 6.4 12.9 0.15 0.30 0.18 81 1011.8
20260503131008 18 252 4.8 17.7 0.00 0.33 0.05 55 1011.8
20260503130603 18 175 11.3 17.7 0.00 0.33 0.05 52 1011.8
20260503110512 16 201 6.4 16.1 0.00 0.58 0.05 62 1012.9
20260503100109 15 263 3.2 14.5 0.00 0.58 0.05 73 1012.9